contact:dominique.lefevre@mio.osupytheas.fr, maurice.libes@osupytheas.fr, didier.mallarino@osupytheas.fr
Project:EMSO http://www.emso-fr.org/EMSO-France
Depth: 2436.0 m
Title:EMSO Ligure Ouest : Data MII capteur AQUADOPP
Date,Latitude,Longitude,X_East,Y_North,Z_Up,Amplitude_X,Amplitude_Y,Amplitude_Z,Batterie,SoundSpeed,Heading,Pitch,Roll,Pressure,TIS,Speed,Direction
, degrees North, degrees East, m.s-1, m.s-1,m.s-1, 1, 1, 1, Volt, m.s-1, degree, degree, degree, dbar, degree_C, m.s-1, degree
2022-01-28T00:04:03,42.805,6.029,-0.022,-0.009,-0.026,103.0,102.0,101.0,13.4,1505.2,324.5,-0.7,1.8,2470.335,13.28,0.023,247.8
2022-01-28T00:07:03,42.805,6.029,-0.027,-0.012,0.003,103.0,103.0,101.0,13.3,1505.2,323.8,-0.7,1.8,2470.302,13.28,0.029,246.0
2022-01-28T00:10:03,42.805,6.029,-0.029,-0.001,-0.03,102.0,103.0,100.0,13.4,1505.2,324.5,-0.7,1.8,2470.375,13.28,0.029,268.0
2022-01-28T00:13:03,42.805,6.029,-0.037,0.005,-0.012,102.0,103.0,102.0,13.4,1505.2,328.9,-0.8,1.8,2470.356,13.29,0.037,277.7
2022-01-28T00:16:03,42.805,6.029,-0.022,0.013,0.009,103.0,102.0,101.0,13.3,1505.2,329.0,-0.8,1.8,2470.333,13.29,0.025,300.6
2022-01-28T00:19:03,42.805,6.029,-0.019,0.004,-0.006,103.0,102.0,102.0,13.3,1505.2,328.5,-0.7,1.8,2470.403,13.29,0.019,281.9
2022-01-28T00:22:03,42.805,6.029,-0.026,-0.01,-0.024,102.0,102.0,101.0,13.3,1505.2,328.3,-0.8,1.8,2470.411,13.29,0.027,249.0
2022-01-28T00:25:03,42.805,6.029,-0.006,0.004,0.016,102.0,103.0,101.0,13.4,1505.2,327.5,-0.8,1.8,2470.428,13.29,0.007,303.7
2022-01-28T00:28:03,42.805,6.029,-0.02,0.0,-0.002,103.0,103.0,101.0,13.4,1505.2,327.3,-0.7,1.8,2470.407,13.29,0.02,270.0
2022-01-28T00:31:03,42.805,6.029,-0.009,0.012,0.003,101.0,105.0,101.0,13.3,1505.2,327.1,-0.7,1.8,2470.477,13.29,0.015,323.1
2022-01-28T00:34:03,42.805,6.029,-0.018,-0.023,0.009,104.0,102.0,102.0,13.3,1505.2,325.2,-0.8,1.8,2470.491,13.29,0.029,218.0
2022-01-28T00:37:03,42.805,6.029,-0.036,-0.004,-0.025,101.0,102.0,101.0,13.4,1505.2,330.4,-0.7,1.8,2470.481,13.29,0.036,263.7
2022-01-28T00:40:03,42.805,6.029,-0.043,0.002,-0.042,103.0,103.0,101.0,13.3,1505.2,328.9,-0.7,1.8,2470.47,13.29,0.043,272.7
2022-01-28T00:43:03,42.805,6.029,-0.03,-0.015,-0.011,102.0,103.0,101.0,13.4,1505.2,329.4,-0.7,1.8,2470.494,13.29,0.033,243.4
2022-01-28T00:46:03,42.805,6.029,-0.021,-0.008,-0.001,104.0,103.0,101.0,13.4,1505.2,324.2,-0.8,1.8,2470.435,13.29,0.022,249.1
2022-01-28T00:49:03,42.805,6.029,-0.034,0.007,-0.013,103.0,103.0,102.0,13.4,1505.2,329.6,-0.7,1.8,2470.465,13.29,0.034,281.6
2022-01-28T00:52:03,42.805,6.029,-0.019,-0.01,-0.024,103.0,104.0,102.0,13.4,1505.2,331.8,-0.8,1.8,2470.43,13.29,0.021,242.2
2022-01-28T00:55:03,42.805,6.029,-0.011,0.004,0.008,103.0,104.0,100.0,13.3,1505.2,329.1,-0.7,1.8,2470.457,13.29,0.011,290.0
2022-01-28T00:58:03,42.805,6.029,-0.033,-0.013,-0.005,102.0,103.0,102.0,13.3,1505.2,330.0,-0.8,1.8,2470.455,13.29,0.035,248.5
2022-01-28T01:04:03,42.805,6.029,-0.057,-0.009,-0.04,105.0,105.0,104.0,13.4,1505.2,331.4,-0.8,1.8,2470.513,13.29,0.057,261.0
2022-01-28T01:07:03,42.805,6.029,-0.032,-0.004,-0.01,103.0,104.0,101.0,13.4,1505.2,326.3,-0.8,1.8,2470.534,13.29,0.032,262.9
2022-01-28T01:10:03,42.805,6.029,-0.002,0.003,0.0,103.0,103.0,101.0,13.4,1505.2,325.3,-0.8,1.8,2470.498,13.29,0.003,326.3
2022-01-28T01:13:03,42.805,6.029,-0.019,0.006,0.001,103.0,104.0,101.0,13.4,1505.2,323.9,-0.7,1.8,2470.506,13.29,0.019,287.5
2022-01-28T01:16:03,42.805,6.029,-0.011,-0.009,0.006,104.0,103.0,104.0,13.4,1505.2,329.9,-0.8,1.8,2470.507,13.29,0.014,230.7
2022-01-28T01:19:03,42.805,6.029,-0.016,-0.017,0.017,104.0,103.0,101.0,13.4,1505.2,326.8,-0.8,1.8,2470.486,13.29,0.023,223.3
2022-01-28T01:22:03,42.805,6.029,-0.007,-0.008,0.014,103.0,102.0,102.0,13.3,1505.2,328.5,-0.7,1.8,2470.493,13.29,0.01,221.2
2022-01-28T01:25:03,42.805,6.029,-0.02,-0.007,0.018,102.0,104.0,102.0,13.3,1505.2,331.2,-0.8,1.8,2470.497,13.29,0.021,250.7
2022-01-28T01:28:03,42.805,6.029,-0.029,-0.018,-0.024,103.0,104.0,102.0,13.4,1505.2,330.7,-0.8,1.8,2470.497,13.29,0.034,238.2
2022-01-28T01:31:03,42.805,6.029,-0.039,0.005,0.002,103.0,102.0,101.0,13.4,1505.2,325.6,-0.8,1.8,2470.515,13.29,0.039,277.3
2022-01-28T01:34:03,42.805,6.029,-0.015,0.006,0.028,103.0,103.0,101.0,13.4,1505.2,328.7,-0.7,1.8,2470.535,13.29,0.016,291.8
2022-01-28T01:37:03,42.805,6.029,-0.027,0.009,-0.009,103.0,104.0,101.0,13.4,1505.2,327.1,-0.7,1.8,2470.532,13.29,0.028,288.4
2022-01-28T01:40:03,42.805,6.029,-0.019,0.002,-0.016,104.0,103.0,101.0,13.3,1505.2,323.7,-0.8,1.8,2470.54,13.29,0.019,276.0
2022-01-28T01:43:03,42.805,6.029,-0.02,0.0,0.019,103.0,103.0,101.0,13.3,1505.2,327.5,-0.8,1.8,2470.575,13.29,0.02,270.0
2022-01-28T01:46:03,42.805,6.029,-0.021,-0.01,-0.008,103.0,105.0,101.0,13.4,1505.2,329.7,-0.7,1.9,2470.583,13.29,0.023,244.5
2022-01-28T01:49:03,42.805,6.029,-0.016,0.008,0.001,103.0,103.0,101.0,13.3,1505.2,326.6,-0.7,1.8,2470.578,13.29,0.017,296.6
2022-01-28T01:52:03,42.805,6.029,-0.013,-0.004,-0.014,103.0,103.0,101.0,13.4,1505.2,331.5,-0.7,1.8,2470.607,13.29,0.013,252.9
2022-01-28T01:55:03,42.805,6.029,-0.025,0.006,-0.013,103.0,102.0,101.0,13.4,1505.2,331.8,-0.8,1.8,2470.584,13.29,0.025,283.5
2022-01-28T01:58:03,42.805,6.029,-0.024,0.002,-0.008,103.0,102.0,101.0,13.3,1505.2,327.1,-0.7,1.8,2470.581,13.29,0.024,274.8
2022-01-28T02:04:03,42.805,6.029,-0.013,-0.028,-0.021,101.0,103.0,103.0,13.3,1505.2,327.8,-0.7,1.8,2470.655,13.29,0.03,204.9
2022-01-28T02:07:03,42.805,6.029,0.018,-0.015,-0.004,103.0,102.0,101.0,13.3,1505.2,326.7,-0.8,1.8,2470.578,13.29,0.023,129.8
2022-01-28T02:10:03,42.805,6.029,-0.015,-0.018,-0.022,102.0,102.0,101.0,13.4,1505.2,326.1,-0.7,1.7,2470.576,13.29,0.023,219.8
2022-01-28T02:13:03,42.805,6.029,0.002,0.0,0.005,102.0,104.0,101.0,13.4,1505.2,328.0,-0.8,1.8,2470.604,13.29,0.002,90.0
2022-01-28T02:16:03,42.805,6.029,0.002,-0.04,-0.049,100.0,103.0,102.0,13.4,1505.2,328.3,-0.7,1.9,2470.642,13.29,0.04,177.1
2022-01-28T02:19:03,42.805,6.029,-0.012,-0.014,0.004,101.0,104.0,102.0,13.4,1505.2,324.1,-0.8,1.8,2470.623,13.29,0.018,220.6
2022-01-28T02:22:03,42.805,6.029,-0.018,-0.001,0.019,101.0,102.0,101.0,13.4,1505.2,331.7,-0.7,1.8,2470.604,13.29,0.018,266.8
2022-01-28T02:25:03,42.805,6.029,-0.014,0.003,0.009,104.0,104.0,102.0,13.3,1505.2,325.6,-0.7,1.8,2470.615,13.29,0.014,282.1
2022-01-28T02:28:03,42.805,6.029,-0.021,-0.004,-0.042,102.0,104.0,102.0,13.4,1505.2,326.1,-0.8,1.8,2470.602,13.29,0.021,259.2
2022-01-28T02:31:03,42.805,6.029,-0.017,-0.012,-0.018,103.0,103.0,101.0,13.4,1505.2,330.0,-0.7,1.8,2470.64,13.29,0.02,234.8
2022-01-28T02:34:03,42.805,6.029,-0.018,0.003,-0.005,102.0,103.0,102.0,13.3,1505.2,327.6,-0.8,1.8,2470.681,13.29,0.018,279.5
2022-01-28T02:37:03,42.805,6.029,0.006,-0.012,0.012,103.0,104.0,101.0,13.4,1505.2,329.5,-0.8,1.8,2470.654,13.29,0.013,153.4
2022-01-28T02:40:03,42.805,6.029,-0.027,0.005,-0.018,104.0,103.0,102.0,13.4,1505.2,328.5,-0.7,1.8,2470.647,13.29,0.027,280.5
2022-01-28T02:43:03,42.805,6.029,-0.008,-0.005,-0.005,105.0,103.0,102.0,13.4,1505.2,324.3,-0.7,1.8,2470.657,13.29,0.009,238.0
2022-01-28T02:46:03,42.805,6.029,-0.04,0.002,-0.021,104.0,103.0,105.0,13.3,1505.2,324.3,-0.8,1.8,2470.673,13.29,0.04,272.9
2022-01-28T02:49:03,42.805,6.029,-0.009,0.014,-0.002,103.0,103.0,102.0,13.4,1505.2,330.1,-0.8,1.8,2470.669,13.29,0.016,327.3
2022-01-28T02:52:03,42.805,6.029,-0.004,-0.006,0.016,105.0,103.0,101.0,13.4,1505.2,326.2,-0.7,1.8,2470.719,13.29,0.007,213.7
2022-01-28T02:55:03,42.805,6.029,-0.027,-0.004,-0.009,103.0,104.0,101.0,13.4,1505.2,329.1,-0.8,1.8,2470.677,13.29,0.027,261.6
2022-01-28T02:58:03,42.805,6.029,0.005,-0.009,-0.004,103.0,103.0,101.0,13.4,1505.2,327.8,-0.7,1.8,2470.685,13.29,0.01,150.9
2022-01-28T03:04:03,42.805,6.029,-0.014,0.013,-0.004,102.0,104.0,101.0,13.4,1505.2,325.8,-0.8,1.8,2470.743,13.29,0.019,312.9
2022-01-28T03:07:03,42.805,6.029,-0.016,-0.006,-0.012,104.0,104.0,103.0,13.3,1505.2,324.7,-0.8,1.8,2470.739,13.29,0.017,249.4
2022-01-28T03:10:03,42.805,6.029,-0.02,-0.009,-0.002,105.0,104.0,102.0,13.4,1505.2,329.5,-0.8,1.8,2470.704,13.29,0.021,245.8
2022-01-28T03:13:03,42.805,6.029,-0.005,-0.008,-0.011,104.0,103.0,105.0,13.4,1505.2,327.5,-0.7,1.8,2470.692,13.29,0.009,212.0
2022-01-28T03:16:03,42.805,6.029,-0.004,-0.01,-0.029,106.0,102.0,102.0,13.4,1505.2,325.5,-0.7,1.8,2470.678,13.29,0.01,201.8
2022-01-28T03:19:03,42.805,6.029,-0.011,0.0,0.005,105.0,104.0,102.0,13.3,1505.2,326.3,-0.8,1.8,2470.681,13.29,0.011,270.0
2022-01-28T03:22:03,42.805,6.029,-0.016,-0.019,-0.008,105.0,103.0,102.0,13.3,1505.2,327.8,-0.8,1.8,2470.684,13.29,0.024,220.1
2022-01-28T03:25:03,42.805,6.029,0.0,-0.003,0.011,102.0,105.0,103.0,13.4,1505.2,326.9,-0.7,1.8,2470.698,13.29,0.003,180.0
2022-01-28T03:28:03,42.805,6.029,-0.009,-0.015,0.006,105.0,104.0,100.0,13.4,1505.2,328.1,-0.8,1.8,2470.693,13.29,0.017,211.0
2022-01-28T03:31:03,42.805,6.029,-0.017,0.001,0.016,105.0,104.0,102.0,13.4,1505.2,325.4,-0.8,1.8,2470.668,13.29,0.017,273.4
2022-01-28T03:34:03,42.805,6.029,-0.013,-0.001,0.002,105.0,102.0,101.0,13.3,1505.2,327.5,-0.8,1.8,2470.656,13.29,0.013,265.6
2022-01-28T03:37:03,42.805,6.029,-0.017,0.007,-0.018,102.0,104.0,102.0,13.4,1505.2,324.9,-0.7,1.8,2470.703,13.29,0.018,292.4
2022-01-28T03:40:03,42.805,6.029,0.001,-0.011,-0.001,103.0,104.0,104.0,13.4,1505.2,323.6,-0.8,1.8,2470.651,13.29,0.011,174.8
2022-01-28T03:43:03,42.805,6.029,-0.001,-0.019,-0.012,103.0,103.0,102.0,13.3,1505.2,328.5,-0.8,1.8,2470.685,13.29,0.019,183.0
2022-01-28T03:46:03,42.805,6.029,-0.003,0.005,0.013,106.0,104.0,102.0,13.4,1505.2,331.3,-0.7,1.8,2470.63,13.29,0.005,329.0
2022-01-28T03:49:03,42.805,6.029,0.015,-0.013,-0.006,105.0,104.0,101.0,13.3,1505.2,328.7,-0.7,1.8,2470.64,13.29,0.019,130.9
2022-01-28T03:52:03,42.805,6.029,0.0,-0.002,-0.019,104.0,103.0,102.0,13.3,1505.2,323.9,-0.8,1.8,2470.666,13.29,0.002,180.0
2022-01-28T03:55:03,42.805,6.029,-0.009,0.012,-0.002,102.0,104.0,103.0,13.3,1505.2,327.7,-0.7,1.9,2470.676,13.29,0.015,323.1
2022-01-28T03:58:03,42.805,6.029,-0.007,-0.009,-0.026,104.0,103.0,102.0,13.4,1505.2,326.4,-0.7,1.9,2470.62,13.29,0.011,217.9
2022-01-28T04:04:03,42.805,6.029,-0.022,0.007,0.014,103.0,104.0,102.0,13.3,1505.2,328.8,-0.7,1.8,2470.685,13.29,0.023,287.6
2022-01-28T04:07:03,42.805,6.029,0.006,0.0,0.0,103.0,102.0,101.0,13.4,1505.2,328.2,-0.8,1.8,2470.645,13.29,0.006,90.0
2022-01-28T04:10:03,42.805,6.029,-0.001,-0.011,-0.002,104.0,104.0,101.0,13.3,1505.2,330.4,-0.7,1.9,2470.609,13.29,0.011,185.2
2022-01-28T04:13:03,42.805,6.029,0.001,0.0,0.001,103.0,106.0,102.0,13.4,1505.2,323.6,-0.8,1.8,2470.587,13.29,0.001,90.0
2022-01-28T04:16:03,42.805,6.029,0.024,-0.014,0.003,103.0,107.0,103.0,13.4,1505.2,329.3,-0.7,1.8,2470.606,13.29,0.027,120.3
2022-01-28T04:19:03,42.805,6.029,0.006,-0.018,0.014,103.0,106.0,101.0,13.3,1505.2,331.5,-0.8,1.8,2470.711,13.29,0.018,161.6
2022-01-28T04:22:03,42.805,6.029,0.003,0.003,0.014,103.0,103.0,102.0,13.4,1505.2,326.6,-0.8,1.8,2470.769,13.29,0.004,45.0
2022-01-28T04:25:03,42.805,6.029,-0.012,0.001,-0.015,104.0,105.0,102.0,13.4,1505.2,327.7,-0.7,1.8,2470.715,13.29,0.012,274.8
2022-01-28T04:28:03,42.805,6.029,-0.014,-0.001,0.016,104.0,103.0,101.0,13.4,1505.2,329.1,-0.8,1.8,2470.582,13.29,0.014,265.9
2022-01-28T04:31:03,42.805,6.029,0.002,-0.024,-0.029,104.0,103.0,102.0,13.4,1505.2,325.9,-0.7,1.9,2470.495,13.29,0.024,175.2
2022-01-28T04:34:03,42.805,6.029,-0.014,-0.02,0.003,102.0,104.0,101.0,13.4,1505.2,326.1,-0.8,1.8,2470.52,13.29,0.024,215.0
2022-01-28T04:37:03,42.805,6.029,0.008,0.008,0.026,103.0,102.0,102.0,13.4,1505.2,325.0,-0.7,1.8,2470.501,13.29,0.011,45.0
2022-01-28T04:40:03,42.805,6.029,0.003,0.007,-0.008,103.0,101.0,101.0,13.4,1505.2,324.6,-0.7,1.8,2470.471,13.29,0.007,23.2
2022-01-28T04:43:03,42.805,6.029,0.012,-0.009,-0.018,102.0,104.0,101.0,13.4,1505.2,325.8,-0.8,1.8,2470.443,13.29,0.015,126.9
2022-01-28T04:46:03,42.805,6.029,-0.011,-0.017,-0.014,102.0,106.0,101.0,13.4,1505.2,328.5,-0.8,1.8,2470.46,13.29,0.02,212.9
2022-01-28T04:49:03,42.805,6.029,0.022,-0.022,0.003,103.0,103.0,101.0,13.4,1505.2,326.2,-0.8,1.8,2470.387,13.29,0.031,135.0
2022-01-28T04:52:03,42.805,6.029,-0.011,-0.018,0.002,102.0,103.0,101.0,13.4,1505.2,327.9,-0.8,1.8,2470.453,13.29,0.021,211.4
2022-01-28T04:55:03,42.805,6.029,-0.004,-0.005,0.02,103.0,101.0,101.0,13.4,1505.2,327.6,-0.8,1.8,2470.424,13.29,0.006,218.7
2022-01-28T04:58:03,42.805,6.029,-0.001,-0.001,0.01,102.0,104.0,101.0,13.4,1505.2,330.7,-0.8,1.8,2470.515,13.29,0.001,225.0
2022-01-28T05:04:03,42.805,6.029,0.007,0.0,0.031,102.0,102.0,101.0,13.4,1505.2,324.1,-0.8,1.8,2470.482,13.28,0.007,90.0
2022-01-28T05:07:03,42.805,6.029,-0.006,0.004,0.016,104.0,103.0,101.0,13.4,1505.2,324.4,-0.8,1.8,2470.522,13.28,0.007,303.7
2022-01-28T05:10:03,42.805,6.029,0.005,0.002,-0.014,103.0,101.0,102.0,13.4,1505.2,325.5,-0.8,1.8,2470.538,13.28,0.005,68.2
2022-01-28T05:13:03,42.805,6.029,-0.007,-0.018,-0.023,102.0,103.0,101.0,13.4,1505.2,325.7,-0.8,1.8,2470.598,13.28,0.019,201.2
2022-01-28T05:16:03,42.805,6.029,0.013,-0.011,-0.015,103.0,104.0,101.0,13.4,1505.2,328.3,-0.8,1.8,2470.583,13.28,0.017,130.2
2022-01-28T05:19:03,42.805,6.029,-0.012,0.003,-0.002,103.0,102.0,102.0,13.4,1505.2,323.7,-0.7,1.8,2470.564,13.28,0.012,284.0
2022-01-28T05:22:03,42.805,6.029,-0.002,0.003,-0.013,102.0,104.0,102.0,13.4,1505.2,324.3,-0.7,1.8,2470.571,13.28,0.003,326.3
2022-01-28T05:25:03,42.805,6.029,-0.007,-0.024,0.003,102.0,105.0,101.0,13.4,1505.2,331.0,-0.7,1.8,2470.599,13.29,0.025,196.3
2022-01-28T05:28:03,42.805,6.029,0.004,-0.014,-0.018,103.0,103.0,101.0,13.4,1505.2,325.9,-0.7,1.8,2470.591,13.29,0.014,164.1
2022-01-28T05:31:03,42.805,6.029,0.017,0.002,0.011,103.0,102.0,102.0,13.4,1505.2,325.6,-0.8,1.8,2470.615,13.29,0.017,83.3
2022-01-28T05:34:03,42.805,6.029,-0.004,-0.001,-0.002,102.0,103.0,102.0,13.4,1505.2,330.7,-0.7,1.8,2470.642,13.29,0.004,256.0
2022-01-28T05:37:03,42.805,6.029,-0.009,0.004,-0.016,103.0,102.0,101.0,13.4,1505.2,328.4,-0.7,1.8,2470.677,13.28,0.009,294.0
2022-01-28T05:40:03,42.805,6.029,0.008,-0.011,-0.009,104.0,102.0,101.0,13.3,1505.2,325.7,-0.8,1.8,2470.653,13.29,0.013,144.0
2022-01-28T05:43:03,42.805,6.029,0.017,-0.003,-0.017,103.0,103.0,100.0,13.4,1505.2,327.5,-0.8,1.8,2470.664,13.29,0.017,100.0
2022-01-28T05:46:03,42.805,6.029,0.013,-0.023,0.028,103.0,102.0,102.0,13.4,1505.2,330.6,-0.7,1.8,2470.65,13.29,0.026,150.5
2022-01-28T05:49:03,42.805,6.029,0.009,0.002,-0.014,102.0,103.0,101.0,13.4,1505.2,327.1,-0.7,1.8,2470.696,13.29,0.009,77.5
2022-01-28T05:52:03,42.805,6.029,-0.006,-0.003,0.012,102.0,104.0,101.0,13.4,1505.2,323.9,-0.7,1.8,2470.692,13.29,0.006,243.4
2022-01-28T05:55:03,42.805,6.029,0.017,-0.011,-0.025,104.0,103.0,102.0,13.3,1505.2,327.7,-0.8,1.8,2470.714,13.29,0.02,122.9
2022-01-28T05:58:03,42.805,6.029,0.001,-0.006,-0.005,104.0,105.0,102.0,13.4,1505.2,328.8,-0.8,1.8,2470.71,13.29,0.006,170.5
2022-01-28T06:04:03,42.805,6.029,0.015,-0.006,-0.008,102.0,102.0,102.0,13.4,1505.2,324.5,-0.8,1.8,2470.739,13.28,0.016,111.8
2022-01-28T06:07:03,42.805,6.029,0.015,-0.003,-0.005,103.0,104.0,103.0,13.3,1505.2,323.7,-0.8,1.8,2470.741,13.28,0.015,101.3
2022-01-28T06:10:03,42.805,6.029,0.0,-0.012,0.0,103.0,103.0,101.0,13.4,1505.2,331.5,-0.8,1.8,2470.697,13.28,0.012,180.0
2022-01-28T06:13:03,42.805,6.029,0.003,-0.016,-0.013,104.0,102.0,102.0,13.3,1505.2,329.0,-0.8,1.8,2470.735,13.28,0.016,169.4
2022-01-28T06:16:03,42.805,6.029,-0.008,-0.006,-0.01,103.0,102.0,101.0,13.4,1505.2,327.8,-0.8,1.8,2470.762,13.28,0.01,233.1
2022-01-28T06:19:03,42.805,6.029,0.0,-0.017,-0.007,102.0,104.0,101.0,13.4,1505.2,327.1,-0.8,1.8,2470.757,13.28,0.017,180.0
2022-01-28T06:22:03,42.805,6.029,0.014,-0.024,-0.014,103.0,102.0,101.0,13.4,1505.2,331.7,-0.7,1.8,2470.734,13.28,0.027,149.7
2022-01-28T06:25:03,42.805,6.029,-0.006,0.0,0.014,104.0,104.0,102.0,13.3,1505.2,323.3,-0.7,1.8,2470.733,13.29,0.006,270.0
2022-01-28T06:28:03,42.805,6.029,0.014,0.003,-0.002,103.0,102.0,101.0,13.4,1505.2,326.5,-0.8,1.8,2470.73,13.28,0.014,77.9
2022-01-28T06:31:03,42.805,6.029,0.002,0.005,0.014,104.0,103.0,101.0,13.4,1505.2,325.6,-0.7,1.8,2470.721,13.29,0.005,21.8
2022-01-28T06:34:03,42.805,6.029,-0.002,-0.011,-0.016,102.0,102.0,101.0,13.4,1505.2,328.5,-0.7,1.8,2470.736,13.29,0.011,190.3
2022-01-28T06:37:03,42.805,6.029,0.03,0.0,0.01,103.0,102.0,102.0,13.4,1505.2,327.7,-0.8,1.8,2470.758,13.28,0.03,90.0
2022-01-28T06:40:03,42.805,6.029,0.012,-0.009,0.0,104.0,103.0,100.0,13.4,1505.2,328.4,-0.7,1.8,2470.756,13.28,0.015,126.9
2022-01-28T06:43:03,42.805,6.029,0.006,-0.013,-0.024,103.0,104.0,102.0,13.4,1505.2,331.3,-0.8,1.8,2470.77,13.28,0.014,155.2
2022-01-28T06:46:03,42.805,6.029,-0.004,0.0,-0.023,103.0,105.0,101.0,13.3,1505.2,327.9,-0.8,1.8,2470.695,13.29,0.004,270.0
2022-01-28T06:49:03,42.805,6.029,-0.007,-0.001,-0.019,103.0,102.0,101.0,13.4,1505.2,326.9,-0.7,1.8,2470.728,13.29,0.007,261.9
2022-01-28T06:52:03,42.805,6.029,0.009,-0.011,0.021,102.0,100.0,101.0,13.4,1505.2,329.0,-0.7,1.8,2470.724,13.29,0.014,140.7
2022-01-28T06:55:03,42.805,6.029,-0.013,-0.007,-0.008,102.0,102.0,102.0,13.4,1505.2,324.5,-0.7,1.8,2470.722,13.28,0.014,241.7
2022-01-28T06:58:03,42.805,6.029,-0.038,-0.006,-0.029,101.0,101.0,102.0,13.3,1505.2,323.6,-0.8,1.8,2470.708,13.29,0.038,261.0
2022-01-28T07:04:03,42.805,6.029,-0.004,-0.002,0.009,102.0,103.0,102.0,13.3,1505.2,326.6,-0.8,1.8,2470.776,13.28,0.004,243.4
2022-01-28T07:07:03,42.805,6.029,-0.007,-0.002,-0.016,102.0,102.0,102.0,13.4,1505.2,328.5,-0.7,1.8,2470.766,13.28,0.007,254.1
2022-01-28T07:10:03,42.805,6.029,0.009,-0.016,-0.008,102.0,103.0,101.0,13.4,1505.2,325.6,-0.8,1.8,2470.73,13.28,0.018,150.6
2022-01-28T07:13:03,42.805,6.029,0.008,-0.004,-0.014,103.0,101.0,101.0,13.4,1505.2,329.4,-0.8,1.8,2470.683,13.28,0.008,116.6
2022-01-28T07:16:03,42.805,6.029,0.01,-0.029,-0.029,102.0,102.0,101.0,13.3,1505.2,328.6,-0.8,1.8,2470.722,13.28,0.03,161.0
2022-01-28T07:19:03,42.805,6.029,-0.001,-0.01,-0.002,102.0,102.0,102.0,13.3,1505.2,324.5,-0.7,1.8,2470.709,13.28,0.01,185.7
2022-01-28T07:22:03,42.805,6.029,-0.003,-0.014,0.009,104.0,101.0,101.0,13.4,1505.2,329.2,-0.7,1.8,2470.68,13.28,0.014,192.1
2022-01-28T07:25:03,42.805,6.029,0.005,-0.022,-0.013,102.0,103.0,101.0,13.4,1505.2,327.4,-0.8,1.8,2470.74,13.28,0.022,167.2
2022-01-28T07:28:03,42.805,6.029,0.004,-0.002,-0.023,104.0,102.0,101.0,13.3,1505.2,324.6,-0.8,1.9,2470.688,13.29,0.004,116.6
2022-01-28T07:31:03,42.805,6.029,0.008,-0.02,-0.035,103.0,102.0,101.0,13.4,1505.2,325.6,-0.8,1.8,2470.698,13.28,0.021,158.2
2022-01-28T07:34:03,42.805,6.029,0.013,-0.027,0.01,102.0,103.0,102.0,13.3,1505.2,331.9,-0.8,1.8,2470.7,13.29,0.029,154.3
2022-01-28T07:37:03,42.805,6.029,0.006,-0.014,0.015,103.0,103.0,101.0,13.3,1505.2,329.9,-0.8,1.8,2470.668,13.28,0.015,156.8
2022-01-28T07:40:03,42.805,6.029,0.005,-0.001,-0.002,102.0,102.0,101.0,13.4,1505.2,324.2,-0.8,1.8,2470.696,13.28,0.005,101.3
2022-01-28T07:43:03,42.805,6.029,-0.001,-0.014,-0.01,103.0,102.0,100.0,13.3,1505.2,325.2,-0.8,1.8,2470.678,13.28,0.014,184.1
2022-01-28T07:46:03,42.805,6.029,0.019,-0.003,0.014,103.0,102.0,101.0,13.4,1505.2,323.1,-0.8,1.8,2470.653,13.28,0.019,99.0
2022-01-28T07:49:03,42.805,6.029,0.021,0.0,-0.004,103.0,103.0,101.0,13.4,1505.2,325.2,-0.8,1.8,2470.61,13.28,0.021,90.0
2022-01-28T07:52:03,42.805,6.029,0.014,-0.011,0.032,103.0,104.0,101.0,13.4,1505.2,330.0,-0.8,1.8,2470.665,13.28,0.017,128.2
2022-01-28T07:55:03,42.805,6.029,0.023,-0.018,-0.017,104.0,103.0,101.0,13.4,1505.2,328.0,-0.7,1.8,2470.61,13.28,0.029,128.0
2022-01-28T07:58:03,42.805,6.029,0.011,-0.024,-0.034,103.0,102.0,101.0,13.4,1505.2,324.6,-0.7,1.8,2470.632,13.28,0.026,155.4
2022-01-28T08:04:03,42.805,6.029,0.0,-0.004,0.036,103.0,104.0,101.0,13.3,1505.2,325.5,-0.8,1.8,2470.586,13.28,0.004,180.0
2022-01-28T08:07:03,42.805,6.029,0.009,-0.003,-0.005,102.0,103.0,101.0,13.4,1505.2,325.7,-0.8,1.8,2470.525,13.28,0.009,108.4
2022-01-28T08:10:03,42.805,6.029,0.001,-0.023,-0.004,102.0,102.0,101.0,13.4,1505.2,330.5,-0.8,1.8,2470.564,13.28,0.023,177.5
2022-01-28T08:13:03,42.805,6.029,0.007,0.003,-0.008,104.0,103.0,102.0,13.4,1505.2,327.0,-0.7,1.8,2470.586,13.28,0.007,66.8
2022-01-28T08:16:03,42.805,6.029,-0.008,-0.009,0.013,102.0,102.0,101.0,13.4,1505.2,328.9,-0.7,1.8,2470.542,13.28,0.012,221.6
2022-01-28T08:19:03,42.805,6.029,-0.005,-0.007,-0.01,102.0,102.0,101.0,13.4,1505.2,325.9,-0.7,1.8,2470.542,13.28,0.008,215.5
2022-01-28T08:22:03,42.805,6.029,0.003,-0.024,-0.004,101.0,102.0,102.0,13.3,1505.2,329.4,-0.7,1.8,2470.504,13.28,0.024,172.9
2022-01-28T08:25:03,42.805,6.029,0.015,0.002,-0.028,101.0,102.0,102.0,13.4,1505.2,328.5,-0.7,1.8,2470.53,13.28,0.015,82.4
2022-01-28T08:28:03,42.805,6.029,0.009,-0.012,-0.009,101.0,101.0,101.0,13.4,1505.2,324.2,-0.8,1.8,2470.504,13.28,0.015,143.1
2022-01-28T08:31:03,42.805,6.029,0.009,-0.017,-0.021,103.0,101.0,101.0,13.4,1505.2,332.3,-0.8,1.9,2470.496,13.28,0.019,152.1
2022-01-28T08:34:03,42.805,6.029,-0.002,-0.008,-0.035,102.0,102.0,101.0,13.4,1505.2,329.7,-0.7,1.8,2470.51,13.28,0.008,194.0
2022-01-28T08:37:03,42.805,6.029,-0.018,0.004,-0.001,103.0,102.0,101.0,13.4,1505.2,329.0,-0.7,1.8,2470.477,13.28,0.018,282.5
2022-01-28T08:40:03,42.805,6.029,-0.001,-0.016,-0.009,102.0,101.0,100.0,13.4,1505.2,324.7,-0.7,1.9,2470.492,13.28,0.016,183.6
2022-01-28T08:43:03,42.805,6.029,0.007,-0.01,-0.016,101.0,103.0,101.0,13.4,1505.2,328.9,-0.8,1.8,2470.567,13.28,0.012,145.0
2022-01-28T08:46:03,42.805,6.029,0.003,-0.032,-0.011,102.0,102.0,100.0,13.4,1505.2,329.1,-0.8,1.8,2470.537,13.28,0.032,174.6
2022-01-28T08:49:03,42.805,6.029,0.01,-0.003,-0.006,101.0,103.0,101.0,13.3,1505.2,329.1,-0.7,1.8,2470.529,13.28,0.01,106.7
2022-01-28T08:52:03,42.805,6.029,0.021,-0.02,-0.036,101.0,102.0,100.0,13.4,1505.2,325.2,-0.7,1.8,2470.497,13.28,0.028,133.6
2022-01-28T08:55:03,42.805,6.029,0.008,-0.018,-0.02,101.0,102.0,101.0,13.4,1505.2,324.1,-0.8,1.8,2470.536,13.28,0.019,156.0
2022-01-28T08:58:03,42.805,6.029,0.023,-0.03,-0.032,104.0,101.0,101.0,13.4,1505.2,325.9,-0.8,1.8,2470.526,13.28,0.037,142.5
2022-01-28T09:04:03,42.805,6.029,0.021,-0.029,-0.03,102.0,102.0,101.0,13.4,1505.2,331.5,-0.8,1.8,2470.455,13.28,0.035,144.1
2022-01-28T09:07:03,42.805,6.029,0.007,0.007,0.005,102.0,103.0,101.0,13.4,1505.2,327.2,-0.8,1.8,2470.432,13.28,0.009,45.0
2022-01-28T09:10:03,42.805,6.029,-0.004,-0.024,-0.017,102.0,102.0,102.0,13.4,1505.2,329.3,-0.7,1.8,2470.444,13.28,0.024,189.5
2022-01-28T09:13:03,42.805,6.029,0.023,-0.013,-0.032,101.0,102.0,101.0,13.3,1505.2,325.3,-0.8,1.8,2470.47,13.28,0.026,119.5
2022-01-28T09:16:03,42.805,6.029,0.023,-0.012,-0.011,103.0,101.0,101.0,13.3,1505.2,326.2,-0.7,1.8,2470.461,13.28,0.025,117.6
2022-01-28T09:19:03,42.805,6.029,-0.013,-0.021,-0.032,101.0,102.0,101.0,13.4,1505.2,329.5,-0.8,1.8,2470.388,13.28,0.024,211.8
2022-01-28T09:22:03,42.805,6.029,0.028,-0.009,-0.01,102.0,102.0,101.0,13.4,1505.2,330.2,-0.8,1.8,2470.431,13.28,0.029,107.8
2022-01-28T09:25:03,42.805,6.029,-0.006,-0.001,-0.031,102.0,102.0,100.0,13.4,1505.2,331.4,-0.8,1.8,2470.463,13.28,0.006,260.5
2022-01-28T09:28:03,42.805,6.029,0.02,-0.024,-0.02,101.0,103.0,101.0,13.4,1505.2,328.1,-0.8,1.8,2470.446,13.28,0.031,140.2
2022-01-28T09:31:03,42.805,6.029,0.018,-0.014,-0.023,102.0,105.0,101.0,13.4,1505.2,328.4,-0.7,1.8,2470.446,13.28,0.022,127.9
2022-01-28T09:34:03,42.805,6.029,0.013,-0.022,-0.017,103.0,102.0,101.0,13.4,1505.2,325.7,-0.8,1.8,2470.456,13.28,0.025,149.4
2022-01-28T09:37:03,42.805,6.029,-0.012,-0.02,-0.029,102.0,101.0,101.0,13.4,1505.2,325.5,-0.8,1.8,2470.43,13.28,0.023,211.0
2022-01-28T09:40:03,42.805,6.029,0.0,-0.037,-0.023,102.0,102.0,101.0,13.3,1505.2,330.6,-0.8,1.8,2470.401,13.28,0.037,180.0
2022-01-28T09:43:03,42.805,6.029,0.0,0.001,-0.037,102.0,102.0,101.0,13.4,1505.2,328.7,-0.8,1.8,2470.373,13.28,0.001,0.0
2022-01-28T09:46:03,42.805,6.029,0.014,-0.019,0.0,104.0,104.0,100.0,13.3,1505.2,328.1,-0.7,1.8,2470.453,13.28,0.023,143.6
2022-01-28T09:49:03,42.805,6.029,0.022,-0.024,-0.014,103.0,101.0,101.0,13.4,1505.2,324.4,-0.7,1.8,2470.408,13.28,0.032,137.5
2022-01-28T09:52:03,42.805,6.029,0.015,-0.024,-0.024,102.0,103.0,101.0,13.4,1505.2,327.1,-0.8,1.8,2470.429,13.28,0.028,148.0
2022-01-28T09:55:03,42.805,6.029,0.016,-0.015,-0.037,103.0,103.0,101.0,13.4,1505.2,327.4,-0.8,1.8,2470.447,13.28,0.021,133.1